Location: *
(51.4660°N, 0.3360°W)
Time: 05:51:55
(UTC+00:00)

SL-16 R/B - Pass Details

Date: 19 September 2019
Orbit: 840 x 849 km, 71.0° (Epoch: 17 October)

Event Time Altitude Azimuth Distance (km) Brightness Sun altitude
Rises 21:40:15 0° 322° (NW) 3,417 6.6 -30.0°
Reaches altitude 10° 21:43:08 10° 309° (NW) 2,478 5.5 -30.3°
Maximum altitude 21:47:33 24° 258° (WSW) 1,702 4.0 -30.7°
Enters shadow 21:48:33 23° 242° (WSW) 1,750 3.9 -30.8°
